Wind_Speed
23 23 23 23 22 22 22 22 22 22 23 23 23 23 23 23 22 22 22 22 21 20 19 17 15 14 16 17 15 15 17 13 7 9 9 8 9 9 10 11 12 9 6 4 3 4 2 2 1 1 3 4 2 3 5 3 2 3 3 7 8 9 10 8 10 8 1 1 4 3 7 12 10 5 3 2 6 7 4 3 3 3 5 6 3 1 2 3
24 24 24 24 23 23 23 23 22 22 22 23 23 24 24 24 24 25 25 24 22 20 18 16 14 12 14 14 13 15 15 8 4 7 9 12 10 10 11 12 13 9 4 3 1 1 3 4 2 2 3 3 1 3 6 5 5 6 4 7 9 8 8 6 9 6 2 2 3 4 7 10 11 6 4 5 9 8 8 7 4 6 9 8 6 3 1 5
25 25 24 24 24 24 24 23 23 23 23 23 23 23 24 25 26 27 26 25 23 21 18 15 12 11 13 12 11 14 13 5 2 4 9 13 11 11 12 11 12 10 5 3 3 2 1 2 2 4 3 2 1 2 5 5 6 7 5 8 8 6 5 5 9 8 6 4 3 5 4 8 9 3 2 6 10 9 10 8 5 7 9 8 5 4 3 7
24 25 25 24 24 24 25 24 23 23 23 24 24 23 24 25 27 28 27 26 23 20 17 15 11 9 12 11 12 13 8 3 2 3 8 12 11 10 11 10 10 9 5 3 3 2 2 2 1 2 3 3 1 1 5 6 5 5 7 10 6 5 5 6 10 8 4 2 4 3 1 6 6 2 3 5 9 11 9 9 9 10 9 5 3 3 4 7
25 25 24 24 25 25 25 25 24 24 23 25 25 24 25 26 27 28 27 25 21 17 15 14 9 9 10 10 13 10 3 3 2 4 8 10 10 8 9 9 9 8 5 2 2 2 1 2 1 1 2 3 3 2 5 5 2 3 9 9 3 5 6 4 4 2 1 1 3 3 3 4 2 3 7 8 12 11 4 4 7 8 8 2 4 1 3 6
26 25 25 26 26 27 26 26 26 25 24 25 25 25 27 28 28 27 25 23 18 13 12 12 8 8 9 10 12 5 2 1 4 6 8 8 7 6 7 7 7 7 5 2 2 1 1 2 2 3 3 2 5 5 2 1 2 4 6 3 0 2 5 1 2 1 1 3 5 3 2 1 2 7 6 9 15 11 2 3 1 2 4 4 2 2 3 6
25 25 26 27 28 28 28 27 27 27 26 26 26 28 29 30 29 27 24 20 14 10 10 10 7 8 10 10 7 0 1 1 3 6 8 7 6 6 6 6 6 6 4 3 2 1 1 3 4 3 3 2 5 6 1 2 2 6 5 0 1 3 3 2 4 2 2 4 4 1 1 1 7 6 2 8 13 11 4 3 2 2 2 1 2 3 4 6
25 26 26 27 28 28 29 29 29 29 28 27 29 30 32 31 30 28 23 15 10 9 10 8 7 8 10 8 3 1 2 2 1 9 9 7 7 6 6 5 5 5 5 4 3 1 1 3 4 2 4 2 2 4 1 1 3 7 6 2 3 3 4 5 6 5 4 4 3 4 7 5 7 4 4 10 11 10 9 1 2 2 2 1 3 4 5 5
26 27 27 27 28 28 29 30 30 31 30 30 32 34 35 32 31 28 19 10 9 10 9 6 5 8 8 4 1 1 2 2 5 9 9 9 8 7 6 4 4 3 4 4 3 1 1 2 4 3 3 1 2 3 1 3 4 3 2 3 3 5 6 7 7 7 7 3 3 8 13 8 5 2 7 12 13 11 10 6 4 4 7 6 5 5 5 5
27 27 27 28 29 29 29 30 31 31 31 32 35 37 37 35 33 25 13 9 10 9 7 4 4 5 4 2 2 1 3 1 6 7 9 10 8 6 4 3 2 2 2 2 2 0 1 1 2 1 2 1 3 3 1 3 1 2 2 3 3 5 5 5 6 7 7 6 6 10 16 12 3 4 7 6 6 8 8 9 7 7 10 9 8 6 5 6
27 27 27 28 30 30 30 30 31 32 32 34 38 39 38 38 33 18 9 10 9 7 6 4 4 3 1 1 2 2 2 2 5 7 9 10 7 4 2 2 1 2 2 1 0 1 1 1 2 1 1 2 3 3 2 1 2 2 2 4 4 3 4 5 6 6 5 5 4 6 14 16 8 10 11 4 2 3 4 7 7 6 8 8 10 8 6 7
26 26 26 28 30 31 31 31 32 32 32 36 40 39 37 39 29 11 9 11 8 7 5 3 5 3 2 0 0 2 1 1 1 7 9 7 4 4 2 1 1 2 1 1 1 1 1 1 3 2 1 0 2 2 2 1 2 1 0 6 6 4 6 7 8 7 6 5 1 3 13 17 17 16 11 8 5 4 4 7 7 7 7 7 8 7 7 7
26 25 26 28 29 30 32 32 33 33 33 38 41 38 38 38 21 7 10 11 8 8 5 3 6 6 3 1 1 1 0 0 0 6 8 4 4 4 4 1 3 2 0 0 2 2 1 1 2 2 2 1 1 1 1 2 2 2 2 4 5 6 6 6 5 6 8 7 6 3 10 14 17 13 7 10 10 10 10 11 10 10 9 9 9 8 9 8
26 25 27 28 28 29 32 33 33 33 36 40 41 38 38 32 14 5 11 11 8 7 5 5 6 5 1 1 1 2 0 1 1 7 8 5 4 3 5 3 2 1 1 1 1 1 1 1 1 2 1 1 1 2 2 2 1 2 2 3 3 6 2 5 4 6 8 5 8 10 12 13 11 4 3 4 10 14 15 15 13 13 11 11 10 10 11 9
25 25 27 27 27 29 30 32 33 34 38 41 41 40 36 24 9 3 10 13 8 4 5 5 5 2 1 1 1 1 1 1 2 8 9 7 5 3 5 4 3 2 2 2 2 2 2 2 1 1 1 1 1 2 4 2 2 2 4 4 3 5 3 3 5 9 7 2 7 12 10 10 7 2 7 5 3 9 13 15 13 12 11 9 8 8 8 7
23 25 26 26 26 28 29 31 33 34 38 42 42 39 28 16 8 3 6 18 9 1 2 2 3 1 1 1 1 0 1 2 6 9 7 5 4 4 6 3 3 4 3 3 3 4 3 1 1 1 1 1 2 2 3 4 3 3 5 6 3 4 4 2 5 5 3 0 5 11 8 4 1 3 6 6 3 3 7 11 10 9 7 6 5 5 6 7
22 23 25 24 25 26 29 31 32 35 38 42 42 35 20 10 9 5 2 20 8 4 3 2 3 1 1 2 2 1 3 6 10 9 5 3 3 5 6 1 2 3 5 5 3 3 1 0 1 1 1 1 2 2 4 6 6 4 5 6 5 6 7 4 3 3 1 2 6 11 12 8 2 4 5 3 4 3 7 8 9 10 8 7 6 6 6 7
22 22 23 23 24 25 27 29 31 35 37 42 41 27 13 8 6 4 3 20 7 7 2 3 2 3 1 2 1 3 5 11 12 8 4 2 3 4 4 0 1 2 5 3 2 2 0 0 1 2 2 2 3 4 6 5 3 3 4 5 6 6 8 8 4 2 2 3 7 10 14 14 11 10 11 10 5 4 9 10 10 10 11 11 9 8 8 8
21 21 22 22 24 23 25 27 28 33 35 41 38 19 12 13 4 5 7 20 7 4 1 2 0 4 2 1 3 7 8 10 9 5 2 2 3 1 1 1 1 2 4 3 2 2 1 2 2 3 4 5 6 7 9 5 4 4 5 6 7 6 7 6 4 0 3 5 10 11 14 15 13 10 10 13 12 11 12 12 11 10 10 11 10 10 10 11
20 20 21 21 23 22 23 24 25 29 32 38 38 18 11 14 5 1 8 12 3 2 4 2 1 5 5 3 5 9 7 4 3 2 2 3 2 2 2 0 1 2 2 2 2 1 1 3 4 5 4 5 7 8 10 6 3 3 5 7 9 9 8 4 2 3 1 5 11 13 16 16 15 13 11 11 12 15 15 13 13 12 11 11 11 13 12 13
20 19 20 20 21 21 21 23 22 25 26 32 35 18 5 8 5 6 9 7 4 3 5 5 4 7 7 5 6 7 3 1 1 1 3 3 1 2 2 1 3 2 1 0 1 1 2 4 6 6 5 5 6 7 8 6 4 6 6 8 9 8 9 5 3 6 5 6 11 13 16 17 16 14 12 11 12 16 15 14 15 15 15 13 13 15 14 13
19 19 20 19 20 20 20 21 20 20 23 26 27 14 3 4 3 5 5 7 5 3 4 4 3 7 7 7 6 2 0 2 2 1 3 2 1 2 1 2 3 2 2 1 2 2 4 5 5 5 6 6 6 5 6 7 7 7 6 7 8 6 6 5 3 4 5 6 9 12 13 15 15 14 15 14 15 16 16 16 16 16 17 15 14 14 13 13
20 20 20 18 19 20 20 19 17 18 21 20 17 9 3 6 4 6 4 7 8 2 3 4 3 4 4 3 4 3 2 1 3 2 3 2 2 0 1 3 2 2 2 4 4 3 3 2 1 2 5 7 7 6 6 6 6 7 7 7 8 5 4 4 3 2 4 6 9 13 13 14 14 14 17 18 18 17 17 18 18 16 17 16 14 13 13 14
20 20 19 18 19 19 20 18 14 18 18 12 10 9 9 10 6 3 4 5 6 2 2 4 3 4 3 1 5 5 1 1 2 1 3 2 2 1 2 2 2 3 3 4 4 5 7 2 3 3 5 7 8 7 7 7 6 8 9 9 8 6 6 7 6 4 6 9 11 12 11 12 12 12 14 15 16 17 17 18 18 15 15 14 14 14 14 15
20 19 18 19 17 18 21 15 11 18 15 6 8 12 13 13 5 2 3 4 4 3 2 4 3 4 3 4 4 3 1 1 2 1 3 3 1 1 1 1 2 3 4 4 3 5 8 3 3 5 5 6 8 7 8 7 5 7 9 11 11 10 10 10 11 9 8 8 6 5 7 10 7 8 10 7 8 13 12 13 16 15 13 12 12 13 13 14
21 19 18 18 17 20 18 8 9 16 10 3 9 13 14 13 4 3 2 3 3 2 2 2 2 3 5 3 2 2 1 1 0 1 2 2 1 1 1 2 1 1 4 4 3 4 4 0 3 7 7 7 7 7 8 8 6 6 4 7 10 11 11 10 10 8 6 6 2 2 5 10 7 5 8 6 6 9 9 10 13 12 11 11 11 10 10 10
21 19 18 18 17 18 13 6 10 13 5 4 11 15 15 9 2 2 2 2 2 1 2 1 1 2 4 0 1 2 2 0 1 2 1 3 1 1 2 2 1 1 3 3 3 2 3 2 3 6 7 8 8 8 7 9 7 4 3 4 4 6 7 7 8 7 6 8 6 5 7 10 11 4 5 8 6 4 7 9 9 10 12 11 6 4 5 6
21 18 17 17 17 16 12 8 10 8 5 8 12 15 13 6 0 1 1 2 2 1 2 1 1 2 1 0 0 2 1 1 1 1 2 3 2 1 3 3 2 1 2 3 5 1 3 3 4 5 7 8 8 5 5 9 8 2 4 3 2 1 3 4 6 7 7 8 9 10 9 8 10 2 5 6 5 3 6 8 9 11 9 2 4 7 7 7
19 17 16 17 17 16 12 10 8 6 6 8 12 15 11 4 2 2 0 2 1 2 3 2 3 1 1 1 1 0 1 1 0 1 1 1 3 1 1 0 1 0 1 4 7 2 2 1 0 3 7 7 5 3 5 9 8 1 3 0 1 1 4 5 5 6 7 8 10 11 8 6 10 5 4 6 6 6 8 7 8 7 2 7 7 7 7 6
18 17 16 16 15 14 12 10 10 7 5 7 12 14 9 3 3 1 2 3 0 2 1 1 2 1 1 3 2 1 1 2 1 2 1 1 2 2 1 1 2 1 2 4 8 7 2 2 2 4 8 6 3 3 5 8 6 0 1 4 5 5 6 6 6 6 5 8 13 11 9 8 9 8 6 7 5 4 5 6 7 2 8 8 6 7 6 6
20 19 18 17 16 14 10 9 9 7 4 7 11 10 6 2 1 1 3 3 0 1 1 1 1 1 0 2 2 1 1 2 1 0 3 2 1 2 3 2 2 1 3 4 6 5 4 5 4 3 6 6 4 5 5 5 4 3 3 5 5 5 5 4 5 5 5 8 9 6 11 12 9 8 3 5 4 5 7 8 7 3 8 7 6 6 5 5
20 18 18 18 16 15 12 11 11 9 7 6 7 6 3 1 1 4 4 2 1 1 1 1 1 1 1 0 2 1 0 1 0 1 2 2 3 4 4 5 2 2 5 2 1 2 2 5 4 1 4 8 7 5 4 4 5 6 6 5 3 3 2 3 5 5 6 8 2 7 12 11 10 15 12 4 5 9 10 7 3 8 8 7 6 5 5 5
20 19 20 19 16 16 17 16 13 10 7 4 3 2 1 1 3 3 2 2 0 1 2 2 2 1 2 0 2 1 0 2 2 1 1 1 2 4 6 4 2 3 5 1 2 3 2 2 4 3 3 8 10 6 4 6 8 9 9 7 5 3 2 4 5 4 5 8 4 9 10 6 8 13 10 4 4 4 2 5 7 9 9 7 6 5 5 6
21 20 20 19 16 17 18 16 13 9 6 3 2 1 1 3 4 2 3 4 1 1 2 2 2 1 1 2 2 1 3 3 2 2 3 3 2 4 5 5 5 3 3 2 2 3 4 3 4 6 2 6 13 10 3 3 6 9 9 8 6 5 4 4 4 4 4 4 3 8 8 6 7 2 5 5 6 7 8 10 10 9 8 6 6 6 6 7
22 22 21 18 15 17 17 14 12 9 5 4 3 3 4 4 3 2 3 3 1 1 1 2 2 1 3 4 1 2 4 3 2 3 4 4 4 3 4 5 8 7 3 3 3 2 5 6 2 3 1 4 11 9 4 3 4 6 7 8 8 6 5 5 5 4 5 6 4 5 5 6 6 3 9 7 8 9 8 10 10 9 8 6 6 7 7 8
22 21 17 13 15 19 17 11 9 10 9 5 4 6 6 5 4 3 2 1 1 2 1 1 2 2 4 3 1 1 2 2 1 2 4 4 4 4 3 3 7 11 8 5 3 2 4 4 1 2 2 5 6 4 6 6 3 4 7 7 5 1 3 6 7 6 6 8 7 6 7 8 8 3 9 10 10 9 7 9 9 8 8 8 8 7 7 7
19 15 12 13 17 18 13 5 9 13 10 6 7 8 5 5 7 6 2 1 0 2 1 3 3 3 3 2 2 2 3 3 2 3 3 2 3 5 5 3 5 13 11 6 3 3 4 4 1 4 5 4 1 1 5 6 3 4 7 5 2 1 2 4 5 5 6 9 7 8 11 10 8 5 7 11 9 8 7 7 7 8 9 8 8 7 7 7
15 12 12 13 12 8 4 6 14 13 7 5 12 13 6 5 7 7 4 2 1 2 4 6 3 3 3 3 2 3 4 4 5 4 3 3 4 5 6 4 5 10 10 5 2 1 2 4 2 4 4 2 3 2 6 6 4 3 2 1 1 3 5 6 6 5 6 9 6 8 11 10 9 6 5 9 9 9 7 6 6 7 8 8 7 8 8 8
13 9 8 5 4 2 3 11 14 9 6 8 12 11 6 6 8 7 6 4 3 4 6 8 6 4 4 4 2 2 4 4 5 4 4 4 4 5 6 4 3 5 6 6 4 1 2 4 3 2 2 0 2 5 7 6 5 1 3 3 3 4 4 5 6 5 7 9 7 7 9 8 9 6 5 9 10 9 7 6 6 6 7 7 6 7 8 8
9 6 4 4 5 4 8 14 11 7 8 9 9 8 5 6 7 7 9 9 7 5 6 7 8 7 5 4 3 3 4 4 4 5 5 4 4 4 6 4 3 3 3 5 4 2 3 4 4 1 1 2 3 6 8 8 7 6 7 6 5 4 2 3 5 5 6 8 7 7 8 6 3 1 4 9 10 8 7 6 5 5 6 6 6 7 8 8
6 5 4 5 8 8 11 11 8 7 9 9 9 10 9 9 9 8 12 14 11 9 9 10 11 10 8 7 6 4 4 4 5 6 6 5 6 6 5 5 6 6 5 4 5 5 4 3 5 4 3 7 6 1 1 5 5 7 9 8 8 7 5 6 8 7 5 7 7 7 10 7 2 3 3 7 8 7 7 6 5 4 4 4 4 6 7 8
5 5 3 4 9 12 10 7 7 6 8 10 8 9 11 12 12 11 10 12 11 11 10 12 13 12 11 12 11 8 6 6 7 8 8 8 10 9 6 6 7 8 6 5 6 8 5 2 5 7 6 7 3 3 3 3 3 4 6 6 7 7 8 10 11 8 6 8 7 7 11 9 2 3 4 6 7 7 6 4 3 2 2 2 3 4 6 8
5 8 7 8 12 13 8 9 10 8 11 10 8 10 13 13 12 12 11 10 8 6 7 9 11 12 12 11 11 12 10 8 11 13 11 11 14 14 11 9 8 8 8 6 5 7 4 2 7 9 6 3 3 1 1 2 2 4 5 4 5 7 8 9 8 6 6 8 9 9 12 9 2 3 3 5 7 5 3 2 1 2 1 1 3 5 7 9
6 9 10 14 21 19 10 9 10 11 12 12 12 14 16 15 14 15 15 13 9 6 8 9 10 11 11 10 10 13 14 10 11 15 15 13 15 17 17 14 11 9 8 6 5 6 4 5 7 8 7 5 4 6 5 2 3 5 6 6 7 8 8 4 1 3 6 10 11 11 12 8 2 3 4 6 6 6 6 7 6 6 3 2 5 6 7 9
6 7 5 10 20 19 10 7 8 11 13 14 15 15 16 15 14 15 16 16 13 10 8 8 11 13 14 13 13 14 17 15 10 11 13 13 14 14 16 19 18 14 12 13 12 7 5 7 8 7 9 10 8 8 8 8 7 4 6 9 9 10 11 6 4 7 10 11 12 11 11 9 7 7 7 6 7 9 10 10 9 7 3 2 6 7 7 8
4 6 4 3 9 10 8 8 11 12 12 13 12 11 15 16 12 13 15 16 16 15 13 11 13 15 15 16 16 14 17 19 15 11 11 12 12 7 3 7 12 13 16 20 17 7 3 6 9 11 12 13 11 10 10 10 8 7 10 15 15 14 14 10 8 11 11 10 12 12 9 11 16 18 14 11 12 14 14 14 13 8 3 3 6 7 8 8
3 4 4 3 3 7 8 9 12 11 11 11 8 6 13 16 12 9 11 10 10 10 11 11 11 12 12 13 14 12 14 17 17 14 13 13 10 2 5 4 2 4 7 10 7 3 2 6 10 15 16 15 14 14 14 13 11 12 14 17 18 18 17 13 12 14 13 10 11 9 9 14 19 18 17 16 15 15 15 15 13 7 4 5 6 8 10 10
4 4 3 3 4 7 8 8 10 13 15 14 10 10 15 17 14 9 5 4 5 4 4 6 8 9 10 10 9 7 6 8 8 7 7 8 5 1 3 2 2 2 1 0 2 0 3 4 5 10 13 14 14 16 17 15 12 13 15 16 19 20 21 17 16 17 15 11 10 9 13 17 17 16 18 18 16 17 16 12 7 5 5 6 8 8 10 10
5 5 3 3 5 9 12 13 13 16 19 16 12 14 18 19 19 15 8 6 8 8 7 10 13 11 10 10 7 6 6 6 5 2 1 2 2 1 2 4 4 5 5 3 2 3 3 3 4 8 11 13 14 15 17 18 16 14 16 18 18 19 20 19 18 18 18 15 13 13 17 19 16 17 20 17 14 15 11 6 5 8 8 7 8 9 9 10
5 6 4 3 7 11 12 13 13 14 15 13 13 14 15 17 18 14 10 10 12 11 11 15 19 15 13 13 12 12 12 11 11 10 8 7 6 4 4 5 5 5 5 4 3 4 4 5 7 9 9 11 13 14 16 19 19 18 18 20 21 19 17 16 15 15 15 14 16 18 20 18 14 17 21 16 9 6 6 8 11 12 9 6 7 9 9 9
12 13 11 6 6 10 12 11 10 11 11 10 11 12 13 16 16 13 11 12 15 16 13 16 20 16 13 16 17 17 17 15 17 17 13 11 10 6 4 4 5 6 5 4 4 4 5 5 6 7 9 9 9 12 17 19 19 20 20 20 20 19 16 13 12 14 14 14 17 19 16 12 12 16 19 13 6 6 13 16 15 11 7 6 8 9 9 9
14 14 13 7 4 7 10 10 10 11 9 8 11 13 14 16 16 14 11 9 13 18 16 16 19 14 11 16 18 17 17 16 15 13 8 7 8 7 6 5 7 7 6 6 5 4 5 5 6 7 9 9 9 12 15 16 16 16 14 16 19 20 20 18 16 18 19 17 15 14 12 13 15 17 17 13 9 13 18 15 11 9 7 7 9 10 10 10
Wind_Direction
14 13 12 11 10 8 7 6 5 2 359 356 353 351 349 347 345 342 340 339 339 338 338 338 335 338 336 337 339 332 335 344 16 60 68 26 3 9 9 8 355 340 340 333 274 241 187 136 156 204 196 175 207 182 161 177 171 174 189 222 231 230 231 212 210 215 238 96 134 172 197 224 241 201 178 175 212 219 216 219 222 265 250 251 262 236 18 106
11 10 9 8 7 6 5 3 2 360 358 355 352 350 348 345 342 339 339 338 337 336 336 336 335 337 337 339 337 335 340 345 38 66 43 21 18 23 20 14 5 1 10 13 21 250 186 158 127 142 187 189 230 171 173 172 184 202 195 221 232 229 226 210 221 221 228 241 148 196 217 224 243 238 176 213 228 207 222 226 204 245 248 245 234 221 167 142
7 6 5 5 4 2 1 -0 359 358 356 354 352 350 347 343 340 339 338 337 336 335 335 334 334 337 336 336 332 339 342 330 92 60 24 23 18 17 15 9 8 13 29 39 49 21 338 99 129 161 180 209 218 185 198 174 186 211 205 227 230 215 210 203 224 225 219 240 219 213 211 219 241 280 174 236 252 227 225 227 210 235 243 238 203 130 138 159
4 2 2 1 0 359 358 357 356 355 354 353 351 349 346 342 340 339 337 335 335 334 334 333 333 335 336 330 324 336 336 276 147 26 13 19 1 2 6 2 10 17 38 59 65 53 32 45 62 163 178 207 183 217 212 185 184 200 208 232 219 181 210 210 218 226 219 240 257 247 155 224 241 312 235 247 261 249 238 230 232 246 249 238 134 118 162 168
2 1 1 0 360 359 357 356 354 352 352 352 350 348 344 341 339 337 336 334 334 336 336 333 330 336 336 323 321 329 302 236 120 24 7 13 354 354 354 359 14 17 34 68 80 63 78 94 56 131 191 208 169 196 217 206 232 220 216 234 214 177 214 204 187 225 298 220 241 250 229 236 258 243 234 239 248 255 260 227 237 257 274 352 73 131 176 182
2 3 1 360 359 358 356 355 353 351 350 350 348 345 342 341 339 336 335 333 333 340 342 335 334 340 332 325 328 325 227 240 83 21 5 15 4 1 348 359 11 12 36 87 102 95 107 133 178 172 194 210 194 208 226 232 307 254 227 228 286 212 221 172 84 40 358 237 229 230 225 76 251 242 232 237 245 254 5 61 330 324 347 22 95 178 196 205
1 1 359 358 357 355 354 354 353 351 348 348 346 342 341 341 339 338 336 332 334 341 340 335 340 341 326 329 337 310 202 107 88 5 6 14 1 1 351 0 358 7 55 73 84 153 128 160 194 173 186 203 209 213 229 6 304 252 250 37 2 325 275 353 21 358 5 281 266 293 287 186 224 240 228 236 247 257 266 84 40 346 44 65 180 204 225 224
359 358 358 357 356 353 352 352 352 350 346 345 343 341 342 341 340 340 335 332 337 334 330 330 342 332 323 339 341 157 76 113 23 350 357 350 341 349 348 355 347 14 60 45 47 175 150 177 183 159 207 205 202 206 164 279 237 239 257 346 356 327 311 340 341 309 321 297 306 300 270 233 208 244 269 239 245 260 269 214 155 284 275 221 217 221 232 233
357 356 356 356 355 353 352 352 350 348 346 344 341 342 344 342 341 341 335 335 337 327 322 321 335 319 317 352 318 206 95 81 0 351 350 337 332 336 334 341 342 30 70 55 54 208 225 193 178 174 223 175 180 201 113 226 219 211 273 355 337 313 319 330 316 303 316 302 302 290 276 257 185 237 272 237 235 246 262 256 212 243 257 249 232 220 225 234
356 354 354 354 353 352 351 351 349 348 345 342 341 345 347 343 342 341 339 342 333 320 311 298 311 310 316 337 265 194 128 36 358 358 350 337 331 334 324 328 340 68 78 80 80 246 234 176 156 167 245 158 181 188 144 225 203 73 344 326 282 290 305 312 306 303 315 300 287 284 279 280 205 207 255 214 207 227 246 262 243 236 250 253 253 239 221 228
354 352 352 352 351 351 350 350 348 347 344 341 342 347 348 344 343 344 348 350 341 324 307 274 266 285 343 303 261 119 128 303 351 10 356 337 333 342 330 329 349 116 71 103 146 304 241 170 136 167 248 158 169 176 182 206 40 58 331 290 248 246 263 258 273 277 291 289 290 298 289 286 255 226 238 205 141 171 213 263 259 245 248 248 253 250 230 223
351 351 351 350 350 349 349 348 347 347 344 341 343 348 347 343 343 350 1 359 359 348 331 236 217 203 161 239 52 90 0 295 15 15 358 347 6 31 25 0 131 118 81 97 38 48 170 184 180 213 338 109 196 183 167 62 9 161 180 279 257 241 242 222 234 238 231 240 177 329 294 271 253 243 220 200 215 177 198 252 256 251 249 245 245 244 242 231
348 349 349 348 348 348 348 347 347 346 343 341 344 347 344 341 342 5 11 10 14 11 25 127 169 172 172 180 75 123 288 213 242 2 5 29 57 48 44 95 145 111 130 124 67 96 101 70 202 224 11 288 234 83 37 14 303 229 186 256 264 263 246 194 207 220 218 218 155 199 274 256 253 254 195 181 195 191 216 236 242 246 247 250 247 239 242 236
347 347 347 347 346 347 347 346 346 344 341 342 345 346 342 338 341 26 23 19 17 26 60 106 144 166 180 153 106 146 198 258 282 350 6 40 61 57 46 58 135 120 144 119 108 156 112 71 177 180 85 281 333 14 296 277 260 271 240 217 240 260 223 137 168 187 202 213 170 197 252 258 260 280 99 162 190 197 223 231 233 241 242 246 247 247 248 242
347 347 347 347 346 346 346 346 346 342 340 343 346 345 339 336 340 50 40 22 8 40 79 108 127 169 201 123 194 228 285 251 323 342 354 17 34 44 27 40 74 70 124 118 92 120 131 136 173 157 119 229 279 277 265 243 201 244 255 229 208 231 210 142 172 177 188 206 188 204 240 260 258 22 44 25 222 212 229 234 234 238 242 248 254 259 264 268
347 348 348 348 347 346 345 346 345 342 341 344 347 345 337 337 335 226 33 8 350 111 72 136 117 166 252 93 146 153 15 338 326 329 340 354 355 0 357 27 75 62 92 98 89 101 107 135 150 74 86 183 197 227 252 253 227 190 235 252 223 220 247 227 161 176 215 269 206 220 244 267 141 66 51 52 26 291 256 254 260 261 266 276 285 291 290 296
348 348 348 348 348 346 345 346 344 341 342 345 347 345 338 338 337 218 349 360 358 148 79 134 140 227 247 80 142 68 359 315 319 323 327 316 292 338 349 23 97 75 99 95 100 110 72 198 191 165 135 173 185 203 239 248 242 201 206 242 239 229 250 253 154 117 84 223 226 234 248 255 275 342 335 33 63 342 291 284 285 288 296 293 289 291 286 285
347 348 348 348 349 346 345 346 344 342 343 347 348 345 350 359 358 158 353 354 6 162 108 108 169 245 183 84 304 324 318 307 316 318 320 304 274 329 352 31 86 120 134 116 119 150 225 219 232 219 168 176 189 198 229 246 275 254 231 246 249 225 232 243 226 128 86 241 243 243 249 253 261 289 299 295 290 278 281 282 281 284 287 288 287 285 283 281
345 347 347 347 348 345 345 347 345 345 345 349 352 353 18 23 28 154 356 353 359 193 298 66 117 284 299 353 298 313 310 308 315 306 317 334 304 317 62 16 20 178 188 175 141 149 202 178 176 214 200 202 204 209 236 267 356 311 280 274 271 260 241 237 231 258 22 283 258 251 256 259 262 264 268 280 287 280 274 272 271 273 274 279 281 281 281 280
342 346 345 345 347 343 346 348 345 349 349 353 4 13 22 18 6 256 349 345 332 239 303 311 257 271 289 303 308 324 320 309 322 311 324 335 323 180 160 0 189 188 216 189 137 126 247 220 205 227 227 211 213 222 245 277 343 290 279 273 266 268 264 247 206 223 311 284 266 258 264 267 266 263 256 263 279 279 275 271 269 269 267 268 269 273 276 276
339 343 343 343 346 343 346 347 346 353 352 360 17 35 37 12 350 325 339 313 246 204 270 283 275 260 273 289 307 338 351 200 200 310 342 1 5 217 184 171 208 182 104 143 133 137 236 241 227 224 225 218 214 222 242 255 259 253 259 267 264 264 266 266 253 243 224 249 264 261 266 268 264 264 260 254 261 268 271 271 270 270 270 268 266 267 269 271
336 338 339 340 343 341 344 346 345 354 358 8 29 58 103 16 323 274 308 300 268 183 225 273 278 261 270 272 271 306 296 225 197 215 359 13 247 253 156 162 220 174 115 200 221 201 228 253 252 219 208 214 213 214 229 237 244 247 247 258 262 263 268 259 239 243 222 232 263 270 270 272 268 264 259 252 250 257 262 263 262 264 266 265 264 265 267 269
334 335 336 339 339 337 342 344 344 357 5 16 37 61 40 0 322 245 242 289 283 208 192 229 231 249 260 250 214 184 221 255 183 175 358 324 209 230 185 171 186 163 158 210 224 231 239 260 322 180 190 203 211 205 209 229 240 237 237 249 254 258 269 254 219 176 220 243 276 289 286 278 270 258 251 246 243 246 250 251 252 253 258 262 262 263 266 267
335 333 334 338 336 336 343 341 345 1 3 12 31 25 1 350 340 244 224 276 281 272 197 218 223 237 242 139 161 174 227 294 200 153 5 323 173 160 217 160 161 198 193 204 215 240 256 270 84 141 184 198 213 204 201 225 238 230 232 241 252 260 259 263 274 290 273 263 269 281 286 276 258 238 241 244 236 238 240 245 253 254 253 258 258 257 259 259
336 332 333 338 335 336 340 337 352 360 353 359 7 -0 354 345 341 202 236 293 278 267 193 194 207 206 174 113 140 180 277 245 228 315 359 348 187 165 153 137 225 205 155 168 197 245 264 262 141 186 188 191 214 215 206 215 240 243 234 234 246 258 258 263 273 281 284 278 269 273 278 277 256 212 232 241 217 230 234 235 249 256 253 251 252 252 252 250
336 333 332 335 333 336 341 337 350 350 345 353 344 342 345 342 353 167 234 314 277 249 127 166 200 171 163 118 113 200 216 206 10 13 356 351 320 241 177 159 255 180 141 170 220 251 262 206 174 215 211 201 219 235 217 203 244 268 229 211 230 244 249 254 260 259 265 281 324 26 280 285 291 231 234 235 201 226 235 229 239 252 257 252 247 250 256 264
334 331 331 333 334 338 344 329 330 342 346 335 334 334 338 345 34 164 253 301 273 215 96 169 254 165 182 334 356 218 214 109 78 85 34 6 0 253 233 186 180 161 155 202 267 225 173 159 186 209 218 220 229 242 213 189 232 274 86 119 195 226 236 236 246 247 259 283 292 273 259 274 285 270 210 221 210 219 243 243 244 246 250 252 257 289 311 326
330 332 331 332 331 335 339 323 323 338 330 324 329 328 335 358 124 243 283 292 295 80 82 135 151 117 152 28 329 240 313 341 200 129 48 17 15 205 236 227 214 203 153 226 264 64 116 192 196 191 213 226 228 230 182 180 218 246 82 78 96 160 253 244 250 258 271 286 280 254 235 253 275 263 135 210 219 208 240 247 253 250 248 268 40 33 24 24
329 329 329 329 328 331 335 324 317 318 311 323 327 322 333 352 257 263 251 272 287 90 71 118 164 109 75 191 187 69 336 277 251 352 357 28 36 57 241 206 120 292 263 240 251 270 57 84 106 215 222 229 224 193 169 191 212 164 89 342 344 332 287 268 261 272 279 274 263 244 214 238 277 263 195 230 232 237 246 242 249 256 64 67 58 49 40 38
325 324 325 327 326 327 326 316 313 318 312 319 322 320 326 310 261 256 240 258 315 86 69 155 191 29 45 212 211 97 221 237 36 4 270 117 51 56 93 105 96 197 242 253 256 262 297 358 349 251 230 239 251 207 198 206 217 19 37 269 288 291 274 265 258 266 276 259 255 241 196 208 272 277 240 228 225 236 243 236 241 221 85 81 66 57 43 31
326 325 324 324 323 320 313 301 310 324 314 312 318 314 307 287 204 191 232 248 65 132 167 180 206 11 31 226 244 141 177 268 353 218 191 169 188 139 150 190 151 195 236 243 249 254 261 252 255 248 226 223 231 231 219 206 216 248 253 255 279 279 255 251 243 231 238 256 261 222 179 195 241 272 241 172 186 237 253 257 243 146 98 91 74 61 46 31
326 323 321 323 321 311 297 288 300 305 297 308 316 301 292 308 236 214 239 303 339 187 170 76 22 19 83 22 272 217 91 282 90 183 197 185 222 195 200 219 186 256 260 230 239 282 247 217 205 227 216 197 201 216 205 192 202 213 219 219 235 260 248 237 228 205 216 246 244 135 168 193 230 255 260 249 267 272 270 270 202 134 113 100 83 63 50 37
321 319 317 319 316 303 296 295 293 287 282 289 289 285 50 279 250 207 227 287 334 71 42 65 61 56 88 225 244 170 153 239 147 159 205 160 240 233 225 215 154 249 261 243 350 304 259 180 161 188 214 194 194 198 195 201 205 204 201 194 194 206 212 226 229 217 233 245 191 151 182 220 244 253 271 299 327 326 35 89 107 113 108 102 88 71 56 43
319 319 315 314 308 298 298 294 280 269 262 236 221 216 133 235 248 198 229 248 256 350 27 83 82 55 202 237 256 201 216 224 134 156 198 175 224 243 223 199 171 201 247 259 284 248 241 266 170 172 165 180 196 213 221 152 185 203 199 197 208 211 216 232 233 224 253 270 198 173 193 236 246 233 61 69 72 68 83 95 99 101 104 104 85 67 50 41
318 317 314 310 302 298 299 286 263 243 216 183 182 192 199 234 246 209 232 241 245 242 145 118 121 209 243 225 273 286 234 233 101 153 208 206 214 228 213 194 185 181 172 221 231 177 233 267 194 166 40 170 196 216 211 147 180 200 183 199 225 235 235 255 282 272 281 297 264 208 211 240 245 114 104 109 86 81 88 95 99 97 97 93 72 56 43 36
319 319 316 304 298 302 299 278 234 205 189 176 203 219 218 230 222 190 189 168 173 162 156 217 167 205 253 218 180 318 211 209 138 182 213 216 231 227 213 199 185 184 181 193 202 171 228 272 90 147 225 202 207 212 201 214 230 171 172 198 216 284 241 243 274 276 263 270 258 223 231 247 255 212 139 128 98 89 87 85 92 87 81 75 60 47 36 31
322 320 307 288 293 297 291 250 187 186 182 178 221 231 219 222 225 212 175 126 191 132 194 255 204 192 240 230 198 173 174 185 168 198 210 196 228 205 197 228 189 190 202 215 230 214 236 274 147 172 208 202 199 273 228 247 269 170 185 198 134 64 243 231 263 264 239 254 252 222 231 239 247 238 141 127 115 102 92 85 87 79 71 64 55 43 29 23
322 313 295 283 281 283 265 178 172 178 178 201 231 237 219 207 216 201 168 153 180 157 211 238 215 182 210 229 217 156 174 188 157 177 208 202 221 170 164 212 191 193 213 221 233 209 214 263 229 178 205 141 100 240 238 229 225 221 261 297 168 225 231 213 225 244 242 253 257 229 231 234 237 232 147 140 138 121 113 103 87 73 64 54 46 36 23 16
322 309 297 268 208 204 184 172 169 173 193 215 233 238 227 229 224 198 180 188 200 201 229 236 219 215 209 192 195 162 191 197 160 176 207 197 210 161 154 198 190 190 203 190 209 216 154 243 262 162 206 52 110 217 223 197 174 215 295 277 244 247 254 230 223 236 243 251 258 239 228 226 234 237 163 152 149 138 135 114 88 71 62 51 37 28 16 8
327 308 281 199 200 215 173 172 176 190 209 220 233 234 236 252 236 194 189 205 216 211 227 232 215 223 224 189 198 211 212 211 175 193 213 188 201 184 166 185 172 145 166 186 213 217 152 216 241 158 109 250 215 205 214 206 184 195 221 221 218 220 257 283 256 240 239 248 255 248 244 231 219 255 135 146 148 147 140 114 98 79 61 48 33 22 10 2
319 293 262 211 220 199 165 178 198 200 218 235 238 234 243 256 249 221 201 207 222 224 224 235 229 228 233 229 228 203 195 219 201 209 226 209 220 223 183 177 171 138 131 180 207 200 187 206 222 215 190 212 216 160 237 238 214 211 216 212 215 212 213 244 245 227 220 242 252 253 259 253 164 93 132 153 154 151 133 106 92 81 64 49 31 13 360 353
285 270 244 194 198 174 167 223 236 213 235 242 238 239 246 252 252 247 224 209 221 230 227 234 235 231 234 242 243 222 204 221 215 218 229 215 219 225 195 170 170 156 159 195 204 192 180 176 223 230 222 220 228 66 50 330 314 255 239 220 213 208 210 230 240 235 225 241 256 263 263 260 180 137 166 160 155 152 138 110 83 61 48 40 12 354 347 344
263 264 262 240 212 185 194 253 245 236 245 247 255 252 248 253 255 254 245 222 215 222 225 232 230 227 230 236 239 233 229 227 217 221 233 231 227 225 208 179 165 175 193 211 201 174 148 169 228 240 244 251 288 241 165 22 358 256 244 207 195 205 213 228 246 260 255 243 247 253 254 252 187 149 170 152 151 162 186 218 259 283 287 338 336 336 338 335
275 275 269 243 218 205 215 247 242 247 250 250 256 250 249 253 251 252 252 240 222 204 216 229 222 220 225 221 220 228 231 231 220 220 230 241 240 228 214 198 182 184 201 212 201 170 160 195 216 238 247 234 236 233 221 191 202 232 227 200 197 202 202 211 261 266 250 234 233 248 254 249 194 134 149 157 172 201 230 247 262 260 253 310 324 330 334 328
283 271 259 223 208 205 221 232 234 251 254 252 254 251 253 255 245 242 246 245 239 223 225 230 210 214 228 227 223 224 227 233 234 223 224 236 245 237 221 214 210 208 211 215 209 191 197 213 200 211 234 233 223 216 217 214 206 211 219 213 209 196 191 192 201 222 233 226 223 236 250 257 257 245 224 201 219 247 254 264 271 255 234 311 319 323 328 321
284 265 269 220 198 211 233 231 234 247 250 253 257 249 250 256 250 235 233 241 240 230 236 241 218 217 227 228 231 231 227 230 233 230 230 234 239 242 222 219 223 227 229 228 224 212 218 231 213 208 223 233 233 222 216 211 197 192 206 211 211 203 198 200 214 226 232 233 234 232 238 260 261 255 254 255 258 266 271 276 276 262 254 311 315 317 318 311
259 252 253 267 238 230 233 231 236 243 249 254 260 254 252 259 264 244 225 235 247 239 245 248 234 233 234 232 238 238 231 232 231 232 240 242 240 245 58 52 308 282 263 253 250 243 239 239 231 231 234 238 244 246 238 224 208 207 210 209 211 211 206 204 218 227 227 237 244 218 201 238 254 257 259 258 256 260 264 266 267 263 270 297 305 309 306 299
244 242 230 249 260 249 247 248 244 248 254 254 255 263 262 262 267 264 240 232 253 252 253 256 248 247 254 259 264 260 253 251 243 239 247 251 255 31 66 108 143 136 201 296 52 117 250 256 243 248 257 260 263 266 263 255 235 222 222 219 215 213 209 207 217 225 223 232 243 218 209 231 250 256 254 249 245 251 257 261 266 262 262 283 296 296 292 291
259 258 237 210 240 253 258 261 260 258 257 255 254 257 259 260 261 262 266 266 260 250 252 267 266 261 269 276 271 267 273 276 277 281 243 224 209 186 262 249 183 154 159 167 160 180 221 269 270 268 276 275 273 273 271 267 257 243 238 236 231 224 213 210 217 221 220 225 236 239 238 241 245 251 255 254 244 244 252 261 262 258 258 272 284 278 274 280
263 271 271 241 250 261 263 261 262 264 259 255 257 256 255 259 259 256 253 254 261 260 252 262 267 263 261 260 255 259 267 269 269 263 248 241 232 210 240 250 213 178 164 166 193 203 212 256 275 276 277 272 269 269 266 264 263 257 248 243 243 241 227 216 220 226 226 227 232 238 244 246 245 252 261 261 243 235 258 259 256 258 260 263 264 260 262 272
264 270 274 271 258 259 262 259 254 261 261 251 254 260 259 260 261 265 259 245 251 259 251 252 263 263 254 251 253 259 263 261 261 260 254 252 249 233 222 209 189 191 194 193 202 206 221 252 268 268 269 266 261 262 266 270 269 263 254 245 241 244 239 225 218 222 224 225 231 236 243 249 249 254 260 255 221 238 257 255 254 257 249 237 243 248 255 267
270 269 265 263 256 252 258 263 255 256 258 247 250 258 261 263 266 270 269 242 234 247 249 247 256 260 252 247 247 253 259 260 265 271 268 255 249 244 241 220 201 207 225 232 223 210 220 246 259 258 266 271 261 258 267 271 266 260 253 242 236 238 239 234 225 224 225 227 235 239 242 247 247 251 257 250 231 242 251 250 250 249 233 221 231 241 248 259
Height
862 861 860 858 857 855 853 851 850 848 846 844 841 839 838 836 834 832 830 828 827 825 823 821 819 818 816 815 813 811 810 808 807 806 806 808 808 807 806 804 802 801 799 799 798 798 797 798 798 799 800 800 799 797 798 799 799 800 802 806 802 795 791 786 785 785 784 786 788 789 787 785 783 783 784 784 784 783 785 785 784 783 781 780 780 781 782 783
862 861 859 858 856 855 853 851 849 847 846 843 841 839 836 834 832 830 828 826 824 823 821 820 818 817 816 814 813 811 809 808 807 807 807 807 807 807 805 804 803 801 800 799 799 798 797 797 797 799 799 799 799 797 797 797 797 796 798 801 795 789 785 780 781 781 783 786 787 787 787 785 782 780 782 784 782 782 784 783 783 783 780 779 779 781 782 783
862 861 859 857 856 854 853 851 849 847 845 843 841 839 836 833 830 828 826 824 822 821 819 818 817 816 815 814 812 811 810 809 808 808 808 807 807 806 805 804 803 801 800 800 799 799 798 797 797 798 798 798 799 799 797 795 795 792 793 796 789 784 783 780 780 780 782 783 784 786 787 785 781 780 782 783 780 780 781 780 781 782 780 778 778 780 782 783
862 860 859 857 856 854 852 850 848 847 845 843 841 838 836 833 829 826 824 822 820 818 817 816 815 815 814 813 811 810 811 809 808 809 808 807 807 806 805 804 803 802 800 800 799 799 799 799 798 797 798 798 798 800 797 793 791 789 789 788 782 782 784 781 778 779 782 784 786 786 788 787 782 783 784 783 783 780 777 775 776 778 776 776 778 780 782 782
862 860 858 857 855 853 851 849 848 846 844 842 840 838 835 832 829 826 822 820 818 817 816 815 814 814 813 812 810 810 810 805 806 809 807 807 807 805 805 804 803 801 800 800 799 799 799 798 799 799 798 797 799 800 796 792 791 789 783 781 781 781 783 782 781 783 784 786 788 788 790 788 783 784 783 782 783 778 774 773 773 774 774 777 780 781 782 782
862 860 858 856 854 852 850 848 847 845 843 841 839 837 834 831 828 825 822 819 817 816 814 813 813 812 812 811 809 810 807 802 805 809 807 807 806 806 805 803 803 801 800 800 799 799 798 798 798 798 798 797 797 797 795 794 795 791 784 783 784 782 782 783 785 788 788 786 786 787 790 789 787 785 781 780 779 774 773 774 775 776 776 778 780 781 782 781
862 860 858 856 854 852 849 847 846 844 842 840 838 835 832 830 827 824 822 819 816 815 814 813 812 811 811 810 809 809 807 805 808 808 807 807 806 805 805 803 803 801 801 800 799 799 799 799 798 798 799 797 796 795 796 797 798 795 790 788 789 787 785 786 788 791 790 788 786 788 791 792 790 786 783 780 775 772 773 775 777 778 778 779 779 780 781 781
862 860 858 856 853 851 849 846 844 842 840 838 836 833 831 828 825 823 820 818 816 814 813 812 811 811 810 809 809 807 807 808 808 807 807 807 805 805 804 803 803 801 801 800 800 800 799 799 798 800 798 797 797 796 797 798 797 797 794 793 793 791 789 789 790 790 790 790 789 789 789 788 787 787 785 780 775 773 773 775 778 779 778 779 778 779 779 780
861 860 857 855 853 851 848 846 843 841 839 836 834 831 828 826 823 821 819 817 816 814 813 812 811 811 810 810 809 806 806 808 808 807 806 805 805 804 803 803 802 801 802 801 801 801 800 799 799 799 797 798 800 797 799 797 795 798 798 797 797 794 792 791 791 789 789 790 790 788 784 782 784 787 783 776 774 774 773 774 776 778 778 777 777 777 778 779
861 859 857 855 853 851 848 846 843 840 838 835 831 828 826 824 821 819 817 816 814 813 812 811 811 811 810 810 808 804 806 808 808 807 806 805 804 803 802 802 802 801 802 801 802 801 800 800 799 800 798 799 800 799 800 798 797 801 800 799 799 797 795 794 792 792 791 789 789 789 784 779 782 785 778 771 772 773 774 775 775 777 776 775 775 776 777 778
861 859 857 855 853 850 848 845 842 840 837 833 829 826 823 821 819 817 816 814 813 812 811 811 811 810 810 810 806 804 807 808 807 807 806 804 803 802 802 801 801 802 802 801 802 801 801 801 800 801 799 798 799 800 800 799 800 802 801 799 798 798 798 796 794 793 793 791 789 790 786 780 779 780 774 770 771 773 775 775 775 776 774 774 773 773 775 775
861 859 856 854 852 849 847 845 842 839 836 832 828 824 822 819 816 815 814 813 812 811 810 809 810 810 810 809 806 806 808 808 807 807 805 804 803 802 802 801 802 802 802 802 802 802 802 801 801 801 799 798 797 798 800 800 801 801 801 798 794 796 796 793 792 791 792 791 788 790 788 777 771 768 767 768 770 772 775 774 773 774 773 772 771 771 771 771
861 859 856 854 851 849 847 844 841 838 835 831 826 823 820 817 815 814 813 812 811 810 809 808 809 810 809 808 807 808 807 807 807 806 805 804 803 802 802 801 801 802 802 802 802 802 802 802 802 801 801 799 797 799 800 800 800 799 799 797 794 791 789 790 792 791 791 788 785 792 786 767 759 760 761 763 766 771 773 771 771 771 771 770 768 769 768 768
862 859 857 854 851 849 846 843 841 838 834 830 826 822 818 816 814 813 812 811 810 810 809 808 809 809 808 806 807 807 807 807 806 806 805 804 803 803 802 802 802 802 802 802 803 803 803 803 802 802 802 801 800 800 800 799 799 797 796 795 794 788 784 789 793 792 793 788 783 790 784 762 756 761 764 764 764 768 769 767 768 767 768 767 766 766 765 765
862 859 857 854 852 849 846 844 841 837 833 829 824 820 816 814 813 813 812 811 811 810 809 809 809 809 807 806 806 806 806 806 805 805 805 803 803 803 802 802 802 802 802 802 802 802 803 803 802 802 802 802 801 800 797 796 797 796 793 790 789 787 782 785 789 788 789 787 785 788 779 762 760 765 769 771 768 768 767 764 765 765 765 766 765 765 765 764
862 859 857 855 853 850 847 844 840 837 832 828 823 819 815 813 812 812 811 810 810 809 809 809 809 809 806 804 805 805 805 806 805 805 804 803 803 803 803 802 802 803 803 803 802 803 803 802 803 803 803 801 800 798 795 794 793 795 793 786 786 787 781 780 785 786 786 787 786 786 775 764 766 769 770 773 772 772 771 767 765 765 765 767 767 767 767 766
862 860 857 855 853 850 848 844 841 837 832 827 822 817 814 812 811 810 811 811 809 809 809 808 809 809 806 805 804 805 806 805 805 804 804 804 803 803 802 802 803 803 803 803 803 803 802 802 803 802 802 801 799 796 795 791 786 786 790 787 786 787 784 780 783 786 789 788 786 785 778 771 771 769 767 770 773 774 773 770 768 767 766 767 767 767 767 767
862 860 858 855 853 851 848 845 842 837 832 828 822 816 814 812 810 810 810 810 809 809 807 807 809 803 799 805 806 806 807 805 804 804 804 803 803 803 803 802 803 803 803 803 803 803 803 802 802 800 800 802 799 796 792 786 782 782 785 784 783 786 787 783 781 784 789 788 785 784 779 773 772 771 769 768 770 773 772 770 769 768 767 766 766 766 766 766
862 860 858 856 854 851 849 846 843 838 834 828 822 816 812 810 810 809 810 810 809 807 804 807 810 801 798 806 809 807 807 805 804 804 804 804 803 803 803 803 803 803 802 802 802 803 802 802 803 799 797 797 795 792 787 784 788 790 788 787 786 786 786 785 785 786 790 789 784 782 776 771 772 773 773 770 768 769 769 768 768 767 767 766 765 764 764 764
862 860 858 856 854 852 850 847 844 841 836 830 823 815 815 819 815 810 811 812 812 811 809 811 814 810 807 808 808 807 806 805 805 804 804 804 803 803 803 803 803 802 802 801 802 804 803 802 800 794 790 792 792 791 788 789 796 798 797 795 792 790 787 787 791 790 792 793 783 778 776 771 771 771 771 772 770 768 767 767 766 765 765 764 763 762 762 761
862 860 858 856 854 852 850 848 846 843 839 835 828 823 831 839 832 824 822 814 811 814 813 812 815 813 809 808 809 808 807 806 805 805 804 804 804 803 802 803 802 801 804 807 805 805 806 801 794 791 791 792 793 794 794 796 800 801 800 797 793 793 789 788 793 790 791 795 786 778 777 772 770 770 769 771 771 767 765 766 765 763 762 761 760 760 759 758
861 859 858 856 854 852 850 849 847 844 842 839 834 836 843 846 842 841 838 824 812 812 814 813 814 812 809 809 809 809 809 806 805 804 804 804 804 802 802 803 802 801 807 810 804 803 803 796 789 791 794 795 796 797 799 800 801 801 799 798 794 791 789 789 793 792 793 794 785 778 779 774 770 770 767 768 768 763 761 762 762 761 760 759 758 757 757 757
861 859 858 856 854 852 850 849 847 846 843 841 840 843 844 844 843 843 843 834 817 810 812 812 812 811 809 808 807 809 808 805 804 803 804 804 803 804 803 802 804 805 807 806 801 799 794 789 792 796 797 798 799 801 803 802 802 800 797 797 793 788 792 793 792 794 794 791 785 782 782 774 768 769 764 761 760 758 758 758 757 757 757 756 756 756 756 755
860 859 857 855 854 852 850 849 847 846 844 844 844 844 844 843 842 841 841 834 818 811 811 810 811 809 807 807 806 807 806 805 805 803 804 804 803 805 803 803 807 806 805 804 804 802 791 789 798 800 799 800 800 801 804 802 798 797 796 796 792 791 797 796 792 794 792 788 786 787 785 767 755 762 759 753 754 753 754 754 753 753 753 754 754 753 754 753
860 858 856 855 854 851 850 848 847 847 846 845 845 844 844 842 841 841 840 830 814 807 808 808 809 807 805 806 806 807 806 805 804 803 804 804 803 804 804 807 806 802 805 808 808 804 795 794 799 801 801 801 800 799 800 799 796 793 792 793 794 794 797 798 796 796 797 792 782 785 786 757 738 752 754 750 752 750 750 753 752 750 750 751 751 749 749 749
859 857 856 855 853 851 850 848 848 847 846 846 845 844 843 842 841 840 840 831 810 798 803 805 805 805 804 806 808 807 804 803 804 804 805 804 804 803 804 805 804 803 809 810 806 801 797 799 801 801 800 800 801 798 795 798 798 793 788 788 793 794 796 799 798 798 798 790 779 785 792 765 740 747 750 748 753 751 749 751 749 748 748 747 747 746 746 746
858 857 856 854 853 851 850 849 849 847 846 847 845 844 843 841 842 841 837 824 801 792 800 804 804 804 805 807 808 804 799 800 805 806 805 804 804 803 802 802 803 804 809 808 800 794 797 802 804 802 801 801 799 793 791 797 798 793 789 791 793 793 796 799 797 797 793 787 783 785 792 784 760 748 746 745 752 754 751 751 748 747 747 744 745 747 748 749
857 856 855 853 853 851 850 850 849 848 848 846 845 845 843 841 842 841 833 814 796 793 797 801 804 803 804 807 807 805 802 802 803 803 806 806 804 803 802 801 802 803 808 807 795 791 799 801 800 801 801 797 792 788 789 795 796 792 792 797 795 794 797 797 796 797 793 795 797 785 784 788 766 748 749 747 749 755 752 749 746 742 742 745 749 753 753 754
856 855 854 853 851 850 850 849 849 848 847 846 846 844 842 843 842 838 830 812 796 793 796 799 802 803 805 806 805 806 806 804 803 803 806 806 803 805 804 805 808 807 810 809 797 795 801 801 802 802 798 791 788 790 792 795 794 791 795 797 795 797 797 797 800 799 797 803 802 785 781 788 766 743 747 749 748 751 746 742 741 739 745 752 754 757 757 756
855 854 853 852 850 850 850 848 848 848 847 847 846 843 843 843 838 832 826 810 794 796 800 800 802 804 805 803 802 807 807 804 806 806 806 806 805 807 807 809 813 811 812 813 806 802 803 805 807 804 797 791 790 793 793 795 793 792 797 797 796 798 795 797 799 796 805 806 791 778 780 792 780 748 738 743 741 740 739 738 738 741 750 756 756 758 759 757
853 852 851 851 850 850 848 848 848 846 847 847 844 845 843 840 838 831 819 804 794 799 801 801 806 806 805 804 801 804 806 805 808 808 803 804 805 806 807 806 806 807 807 806 805 805 808 809 804 799 796 793 795 797 794 796 796 796 799 798 803 801 792 799 799 801 816 800 774 771 775 789 788 752 730 736 736 734 737 737 737 744 753 757 759 760 759 759
852 851 850 849 848 848 847 846 846 846 847 845 845 845 840 839 836 823 810 796 790 796 798 803 811 809 809 812 805 806 810 805 808 809 803 804 804 802 802 799 797 798 794 791 795 797 798 801 800 797 795 795 797 797 797 799 798 800 801 804 814 806 799 807 796 796 809 786 768 773 772 781 779 746 727 732 735 734 734 736 738 747 755 758 760 760 759 760
850 849 848 847 847 846 844 844 844 845 845 845 846 843 843 843 830 814 808 796 790 800 805 808 816 816 815 811 805 812 815 806 807 808 805 808 808 801 799 801 802 798 791 793 800 795 786 789 801 801 792 792 793 789 791 796 795 799 799 803 810 804 812 818 793 784 787 768 766 773 770 775 763 738 735 739 742 742 739 742 746 750 756 759 760 760 760 759
847 847 845 844 844 843 842 842 842 843 844 845 845 844 849 845 825 814 813 802 802 813 813 813 818 820 817 809 807 814 808 802 808 809 805 809 810 803 797 803 809 801 798 802 801 798 790 780 787 794 787 787 789 783 781 784 788 793 791 796 797 787 795 798 777 775 772 756 762 772 776 773 747 737 750 751 750 752 748 750 753 754 757 758 759 759 758 758
844 844 842 841 841 839 839 839 840 842 843 844 845 848 850 836 819 817 812 804 810 814 813 818 819 814 812 810 816 817 804 800 810 811 807 805 804 799 792 796 805 803 804 804 796 804 807 787 782 790 789 788 788 783 781 783 787 789 789 797 795 780 778 779 771 774 776 771 769 768 767 755 733 738 754 753 753 755 753 754 754 756 758 757 758 758 758 759
842 840 839 838 837 835 836 836 837 840 841 843 846 845 837 821 812 813 807 802 808 808 808 815 813 807 805 805 815 821 810 807 813 810 808 809 804 800 794 792 798 800 797 792 789 798 801 791 791 795 792 791 789 784 785 785 781 783 792 796 788 780 781 785 783 776 782 788 773 758 757 747 735 740 745 748 755 756 756 756 755 757 757 756 758 759 759 759
839 837 836 834 832 831 832 833 835 838 838 842 842 832 821 813 807 806 806 806 808 806 805 806 804 800 800 800 808 819 815 809 813 808 804 807 800 796 798 793 793 795 789 785 785 787 786 784 790 794 789 788 792 790 788 787 780 782 792 788 782 787 788 791 793 784 786 790 766 749 754 749 741 740 740 747 754 756 758 757 756 757 756 757 759 759 760 759
838 836 833 830 829 828 830 832 833 835 837 838 832 819 812 810 803 801 805 806 806 807 806 804 802 799 800 799 801 815 815 804 808 811 803 800 790 786 793 791 789 792 790 788 787 788 791 787 786 793 790 786 793 794 787 786 786 784 787 782 781 790 787 786 795 792 789 788 767 750 749 744 736 729 735 747 752 755 759 757 757 758 756 758 759 759 760 758
837 835 830 827 827 827 828 830 831 834 835 831 824 815 807 803 799 799 802 803 803 806 804 801 799 798 801 802 801 810 813 802 804 808 800 793 787 784 786 784 787 793 793 793 790 789 794 791 788 794 795 789 791 792 784 782 787 790 789 785 782 785 780 775 780 779 778 778 768 756 749 740 729 719 727 743 749 753 756 756 758 758 757 759 759 759 760 758
837 835 829 825 826 826 827 829 829 831 829 821 815 809 804 800 798 798 799 800 800 801 801 798 798 797 798 802 802 802 805 804 805 804 796 789 784 783 784 782 785 794 796 795 793 791 794 796 793 795 800 796 787 783 778 774 780 786 789 789 787 786 785 783 780 773 773 776 768 763 753 734 726 729 734 742 749 752 754 755 758 759 759 760 759 759 759 757
838 836 827 823 825 825 826 827 825 824 820 814 808 804 801 798 796 795 795 796 795 793 794 794 795 795 793 797 800 799 801 804 804 802 797 791 786 782 782 780 781 790 796 796 795 793 793 797 795 791 795 791 779 779 782 776 774 777 778 781 782 781 783 790 789 773 772 777 769 770 765 738 730 741 741 742 749 752 753 756 757 759 760 760 760 759 758 757
837 833 824 822 824 823 826 823 818 817 813 805 800 798 797 794 791 792 792 793 793 790 790 790 789 790 789 788 790 793 796 797 796 796 791 786 785 781 778 779 781 784 787 787 787 786 787 793 794 788 785 781 779 787 793 789 784 780 776 775 775 777 778 783 784 771 770 776 768 771 772 748 736 743 741 743 750 752 755 757 757 758 759 759 759 758 758 757
832 827 820 821 821 822 826 820 812 812 805 796 794 793 792 790 789 790 788 790 793 790 789 788 786 787 787 785 786 788 790 789 786 785 782 780 778 775 774 777 780 781 780 780 780 783 789 794 793 787 782 781 783 787 791 795 794 786 781 780 780 779 776 775 777 773 774 775 768 770 768 748 740 746 745 746 751 753 756 756 756 757 756 756 758 756 756 755
827 821 817 817 817 818 819 812 807 806 798 793 793 790 788 785 785 787 785 785 787 787 787 784 781 783 782 781 784 784 783 783 778 773 776 775 768 766 768 771 775 777 776 775 774 779 789 789 787 790 791 791 792 790 790 795 796 787 779 779 782 780 779 782 785 786 785 777 771 773 764 744 739 747 749 750 753 754 754 753 752 753 753 754 755 754 754 754
825 817 810 809 811 811 806 800 801 801 796 793 792 788 785 781 779 781 781 779 778 780 781 776 773 776 775 774 778 777 775 776 774 769 768 768 762 760 763 764 768 770 768 768 767 771 779 775 776 788 790 788 789 786 780 776 780 784 781 779 780 781 782 784 784 786 783 775 772 771 762 747 741 743 746 748 750 750 748 747 747 748 750 752 753 753 753 753
824 815 807 806 808 805 798 794 797 796 792 791 787 783 782 778 774 774 774 774 772 773 773 768 766 769 769 769 772 772 768 767 768 766 764 762 759 761 765 764 765 765 764 764 763 768 775 770 767 772 770 765 764 762 758 757 764 776 779 775 776 777 778 778 776 775 771 769 766 761 761 759 748 742 743 744 745 745 742 742 742 744 748 750 751 752 752 751
821 813 807 807 805 799 794 793 794 790 787 788 783 778 777 774 771 770 768 768 768 769 769 764 763 767 767 767 768 765 763 763 763 763 762 760 758 765 773 772 770 770 769 769 768 772 779 775 766 765 761 755 753 750 748 752 758 763 766 766 767 769 772 776 774 766 763 768 764 755 760 763 750 744 745 743 742 741 739 739 739 742 746 748 749 751 750 749
815 806 802 804 801 795 790 789 789 787 785 784 779 776 775 773 772 770 768 767 767 769 771 766 764 766 766 766 768 764 763 765 765 764 763 764 766 771 776 774 773 773 773 775 777 777 781 779 771 769 768 762 759 757 753 753 755 755 755 757 757 759 763 770 771 764 762 767 761 751 754 754 746 742 741 738 738 736 733 736 739 742 746 747 748 749 748 747
809 802 798 799 796 790 786 784 784 782 780 779 775 773 773 771 770 769 767 768 766 765 769 767 763 764 765 766 769 769 768 769 770 768 767 770 772 773 772 770 770 771 772 775 777 778 782 781 773 773 775 770 766 765 761 760 759 756 755 752 750 751 754 759 762 760 759 760 756 751 750 745 739 736 731 730 732 731 732 737 740 742 743 744 746 747 746 745
806 801 797 796 791 786 783 781 781 778 774 775 772 767 767 767 765 764 764 767 767 762 764 765 760 760 763 763 766 767 764 765 767 765 764 767 769 769 769 767 766 769 772 773 773 775 780 778 771 772 776 772 766 764 761 759 757 757 756 753 749 749 751 755 758 757 758 759 755 751 748 740 734 730 726 727 731 732 735 737 737 737 738 741 744 745 744 742
802 799 798 795 786 781 779 776 777 775 770 770 767 763 763 762 761 762 760 760 763 760 761 762 758 758 760 760 761 759 756 758 759 756 757 760 761 762 765 765 764 767 770 771 770 772 775 775 771 773 778 772 764 763 760 756 755 756 754 754 754 753 751 753 754 753 752 753 751 750 747 739 732 728 725 727 732 734 733 732 732 734 735 739 742 742 741 739
799 795 795 793 781 775 774 771 771 770 764 763 762 759 760 758 757 761 759 754 756 756 755 757 756 755 758 757 756 753 751 751 751 751 754 757 757 758 760 761 762 765 767 768 768 768 770 773 771 772 775 770 761 760 758 757 759 756 748 747 748 749 746 744 743 742 742 742 743 743 738 731 726 724 723 725 729 729 726 726 729 731 734 737 738 738 737 735